Flag Weather past 2 weeks in Leipzig, Saxony, Germany

Now
34 °F

Clear.


Feels Like: 27 °F
Forecast: 29 / 39 °F
Wind: 8 mph from East

Location: Leipzig-Schkeuditz

Current Time: Nov 26, 2014 at 9:57:18 PM

Latest Report: Nov 26, 2014 at 9:20 PM


Visibility: 10 mi

Pressure: 30.07 "Hg

Humidity: 93%

Dew point: 32 °F

Location of LeipzigLocation

Historic Weather in Leipzig — Graph

°F

Leipzig temperature yesterday

Maximum temperature yesterday: 43 °F (at 12:20 PM)
Minimum temperature yesterday: 34 °F (at 2:20 AM)
Average temperature yesterday: 39 °F

Past Weeks' High & Low Weather Summary

 TemperatureHumidityPressure
High57 °F (Nov 14, 12:20 PM)100% (Nov 11, 8:20 PM)30.36 "Hg (Nov 11, 8:20 PM)
Low34 °F (Nov 25, 2:20 AM)63% (Nov 23, 1:50 PM)29.53 "Hg (Nov 16, 4:20 AM)
Average44 °F95%30.00 "Hg
* Reported Nov 11 8:20 PM — Nov 26 8:50 PM, Leipzig, Weather by CustomWeather, © 2014

Note: Actual official high and low records may vary slightly from our data, if they occured in-between our weather recording intervals... More about our weather records

Advertising

Leipzig weather history for previous 24 hours

 ConditionsComfort  
Time TempWeatherWind HumidityBarometerVisibility
8:50 PM
Nov 26
34 °FClear.8 mph93%30.07 "Hg10 mi
8:20 PM34 °FClear.8 mph93%30.07 "Hg10 mi
7:50 PM34 °FClear.9 mph93%30.09 "Hg10 mi
7:20 PM36 °FClear.10 mph87%30.09 "Hg10 mi
6:50 PM36 °FPassing clouds.13 mph87%30.09 "HgN/A
6:20 PM36 °FPassing clouds.13 mph87%30.09 "HgN/A
5:50 PM36 °FClear.15 mph87%30.09 "Hg10 mi
5:20 PM36 °FPassing clouds.18 mph87%30.09 "HgN/A
4:50 PM37 °FPassing clouds.16 mph87%30.09 "HgN/A
4:20 PM37 °FPassing clouds.15 mph87%30.09 "HgN/A
3:50 PM39 °FScattered clouds.18 mph81%30.12 "HgN/A
3:20 PM41 °FSunny.16 mph81%30.12 "Hg10 mi
2:50 PM43 °FSunny.16 mph76%30.12 "Hg10 mi
2:20 PM43 °FSunny.15 mph76%30.12 "Hg10 mi
1:50 PM43 °FPartly sunny.13 mph76%30.12 "HgN/A
1:20 PM43 °FPartly sunny.14 mph81%30.12 "HgN/A
12:50 PM43 °FSunny.15 mph76%30.15 "Hg10 mi
12:20 PM41 °FSunny.15 mph81%30.15 "Hg10 mi
11:50 AM41 °FScattered clouds.16 mph81%30.15 "HgN/A
11:20 AM39 °FScattered clouds.15 mph87%30.15 "HgN/A
10:20 AM37 °FSunny.15 mph93%30.18 "Hg10 mi
9:50 AM36 °FScattered clouds.14 mph100%30.18 "Hg5 mi
9:20 AM36 °FClear.14 mph100%30.18 "Hg5 mi
8:50 AM34 °FClear.13 mph100%30.18 "Hg4 mi
8:20 AM34 °FFog.12 mph100%30.18 "Hg3 mi
7:50 AM34 °FFog.12 mph100%30.18 "Hg2 mi
7:20 AM34 °FFog.12 mph100%30.18 "Hg2 mi
6:50 AM34 °FFog.13 mph100%30.18 "Hg2 mi
6:20 AM34 °FFog.13 mph100%30.18 "Hg2 mi
5:50 AM34 °FFog.13 mph100%30.18 "Hg2 mi
5:20 AM34 °FFog.14 mph100%30.21 "Hg1 mi
4:20 AM34 °FFog.15 mph100%30.21 "Hg1 mi
3:50 AM34 °FFog.13 mph100%30.21 "Hg1 mi
3:20 AM34 °FFog.10 mph100%30.21 "Hg1 mi
2:50 AM34 °FFog.10 mph100%30.24 "Hg1 mi
2:20 AM34 °FFog.9 mph100%30.24 "Hg1 mi
1:50 AM36 °FClear.9 mph100%30.24 "Hg4 mi
1:20 AM37 °FPassing clouds.8 mph100%30.24 "Hg4 mi
12:50 AM37 °FPassing clouds.8 mph93%30.24 "Hg4 mi
12:20 AM39 °FFog.9 mph93%30.27 "Hg3 mi
11:50 PM
Nov 25
39 °FFog.8 mph100%30.27 "Hg3 mi
11:20 PM39 °FFog.8 mph100%30.27 "Hg3 mi
10:50 PM39 °FFog.8 mph100%30.27 "Hg3 mi
10:20 PM39 °FFog.7 mph100%30.30 "Hg3 mi
9:50 PM39 °FFog.7 mph100%30.30 "Hg3 mi
9:20 PM39 °FDrizzle. Fog.10 mph100%30.30 "Hg2 mi
Weather by CustomWeather, © 2014

See weather overviewHow to use our weather pages